Weather History for KASL - April, 2013

Change the Weather History Date:

Saturday, April 6, 2013

  Actual Average (KGGG) Record (KGGG)
Temperature  
Mean Temperature 60 °F 62 °F  
Max Temperature 75 °F 74 °F 90 °F (1911)
Min Temperature 46 °F 51 °F 31 °F (1931)
Degree Days  
Heating Degree Days 4 4  
Month to date heating degree days 29  
Since 1 July heating degree days 2188  
Cooling Degree Days 0 2  
Month to date cooling degree days 12  
Year to date cooling degree days 51  
Growing Degree Days 10 (Base 50)    
Moisture  
Dew Point 47 °F    
Average Humidity 63    
Maximum Humidity 93    
Minimum Humidity 31    
Precipitation  
Precipitation 0.00 in 0.11 in 2.26 in (1918)
Month to date precipitation 0.71  
Year to date precipitation 12.42  
Snow  
Snow 0.00 in - - ()
Month to date snowfall  
Since 1 July snowfall  
Snow Depth -    
Sea Level Pressure  
Sea Level Pressure 30.02 in    
Wind  
Wind Speed 5 mph (SSE)    
Max Wind Speed 17 mph    
Max Gust Speed 24 mph    
Visibility 10 miles    
Events      
T = Trace of Precipitation, MM = Missing Value Source: NWS Daily Summary

Daily Weather History Graph

Daily Weather History Graph

Search for Another Location

Airport or City:

Trip Planner

Search our weather history database for the weather conditions in past years. The results will help you decide how hot, cold, wet, or windy it might be!

Date:

Astronomy

Apr. 06, 2013 Rise Set
Actual Time 6:58 AM CDT 7:40 PM CDT
Civil Twilight 6:33 AM CDT 8:05 PM CDT
Nautical Twilight 6:04 AM CDT 8:35 PM CDT
Astronomical Twilight 5:34 AM CDT 9:05 PM CDT
Moon 4:30 AM CDT (4/6) 4:20 PM CDT (4/6)
Length of Visible Light 13h 32m
Length of Day
12h 42m
Waning Crescent, 15% of the Moon is Illuminated
Apr 6
Waning Crescent
Apr 10
New
Apr 18
First Quarter
Apr 25
Full
May 2
Last Quarter

Hourly Weather History & Observations

Time (CDT) Temp. Dew Point Humidity Pressure Visibility Wind Dir Wind Speed Gust Speed Precip Events Conditions
12:15 AM 50.0 °F 46.4 °F 87% 30.11 in 10.0 mi Calm Calm - N/A   Clear
12:35 AM 50.0 °F 46.4 °F 87% 30.11 in 10.0 mi Calm Calm - N/A   Clear
12:55 AM 50.0 °F 46.4 °F 87% 30.11 in 10.0 mi Calm Calm - N/A   Clear
1:15 AM 50.0 °F 46.4 °F 87% 30.10 in 10.0 mi Calm Calm - N/A   Clear
1:35 AM 50.0 °F 46.4 °F 87% 30.10 in 10.0 mi Calm Calm - N/A   Clear
1:55 AM 50.0 °F 46.4 °F 87% 30.09 in 10.0 mi Calm Calm - N/A   Clear
2:15 AM 50.0 °F 46.4 °F 87% 30.09 in 10.0 mi Calm Calm - N/A   Clear
2:35 AM 48.2 °F 44.6 °F 87% 30.09 in 10.0 mi Calm Calm - N/A   Clear
2:55 AM 46.4 °F 44.6 °F 93% 30.07 in 10.0 mi Calm Calm - N/A   Clear
3:15 AM 46.4 °F 44.6 °F 93% 30.06 in 10.0 mi Calm Calm - N/A   Clear
3:35 AM 46.4 °F 44.6 °F 93% 30.05 in 10.0 mi Calm Calm - N/A   Clear
3:55 AM 46.4 °F 44.6 °F 93% 30.05 in 10.0 mi Calm Calm - N/A   Clear
4:15 AM 46.4 °F 44.6 °F 93% 30.04 in 10.0 mi Calm Calm - N/A   Clear
4:35 AM 46.4 °F 44.6 °F 93% 30.04 in 10.0 mi Calm Calm - N/A   Clear
4:55 AM 46.4 °F 42.8 °F 87% 30.04 in 10.0 mi Calm Calm - N/A   Clear
5:15 AM 46.4 °F 44.6 °F 93% 30.05 in 10.0 mi Calm Calm - N/A   Clear
5:55 AM 48.2 °F 44.6 °F 87% 30.05 in 10.0 mi Calm Calm - N/A   Clear
6:15 AM 46.4 °F 42.8 °F 87% 30.05 in 10.0 mi Calm Calm - N/A   Clear
6:35 AM 46.4 °F 42.8 °F 87% 30.06 in 10.0 mi Calm Calm - N/A   Clear
6:55 AM 46.4 °F 44.6 °F 93% 30.06 in 10.0 mi Calm Calm - N/A   Clear
7:15 AM 46.4 °F 42.8 °F 87% 30.06 in 10.0 mi Calm Calm - N/A   Clear
7:35 AM 46.4 °F 44.6 °F 93% 30.07 in 10.0 mi Calm Calm - N/A   Clear
7:55 AM 50.0 °F 44.6 °F 82% 30.08 in 10.0 mi SSE 4.6 mph - N/A   Clear
8:15 AM 50.0 °F 46.4 °F 87% 30.09 in 10.0 mi SSE 3.5 mph - N/A   Clear
8:35 AM 50.0 °F 46.4 °F 87% 30.09 in 10.0 mi SSE 5.8 mph - N/A   Clear
8:55 AM 51.8 °F 46.4 °F 82% 30.09 in 10.0 mi South 6.9 mph - N/A   Clear
9:15 AM 53.6 °F 48.2 °F 82% 30.09 in 10.0 mi SSE 8.1 mph - N/A   Clear
9:55 AM 57.2 °F 46.4 °F 67% 30.09 in 10.0 mi South 10.4 mph - N/A   Clear
10:15 AM 59.0 °F 46.4 °F 63% 30.08 in 10.0 mi SSE 9.2 mph - N/A   Clear
10:35 AM 60.8 °F 46.4 °F 59% 30.08 in 10.0 mi SSE 12.7 mph 16.1 mph N/A   Clear
10:55 AM 64.4 °F 50.0 °F 59% 30.07 in 10.0 mi SSE 17.3 mph 23.0 mph N/A   Clear
11:15 AM 64.4 °F 48.2 °F 56% 30.07 in 10.0 mi South 12.7 mph 24.2 mph N/A   Clear
11:35 AM 64.4 °F 46.4 °F 52% 30.06 in 10.0 mi SSE 13.8 mph - N/A   Clear
11:55 AM 68.0 °F 48.2 °F 49% 30.05 in 10.0 mi SSE 10.4 mph 20.7 mph N/A   Clear
12:15 PM 69.8 °F 46.4 °F 43% 30.05 in 10.0 mi SSE 16.1 mph 20.7 mph N/A   Clear
12:35 PM 69.8 °F 46.4 °F 43% 30.05 in 10.0 mi South 17.3 mph - N/A   Clear
12:55 PM 69.8 °F 44.6 °F 40% 30.04 in 10.0 mi SSE 12.7 mph - N/A   Clear
1:15 PM 69.8 °F 42.8 °F 38% 30.04 in 10.0 mi SSE 13.8 mph 23.0 mph N/A   Clear
1:35 PM 71.6 °F 42.8 °F 35% 30.03 in 10.0 mi SSE 16.1 mph 21.9 mph N/A   Clear
1:55 PM 71.6 °F 41.0 °F 33% 30.02 in 10.0 mi South 12.7 mph 19.6 mph N/A   Clear
2:15 PM 71.6 °F 42.8 °F 35% 30.01 in 10.0 mi South 11.5 mph 19.6 mph N/A   Clear
2:35 PM 73.4 °F 42.8 °F 33% 30.00 in 10.0 mi SSW 12.7 mph 20.7 mph N/A   Clear
2:55 PM 73.4 °F 42.8 °F 33% 29.98 in 10.0 mi South 11.5 mph 16.1 mph N/A   Clear
3:15 PM 75.2 °F 44.6 °F 34% 29.96 in 10.0 mi SSE 13.8 mph - N/A   Clear
3:35 PM 75.2 °F 44.6 °F 34% 29.96 in 10.0 mi South 8.1 mph 19.6 mph N/A   Clear
3:55 PM 75.2 °F 44.6 °F 34% 29.96 in 10.0 mi South 12.7 mph 24.2 mph N/A   Clear
4:15 PM 75.2 °F 42.8 °F 31% 29.95 in 10.0 mi South 12.7 mph 19.6 mph N/A   Clear
4:35 PM 75.2 °F 42.8 °F 31% 29.94 in 10.0 mi SSE 17.3 mph 21.9 mph N/A   Clear
4:55 PM 75.2 °F 42.8 °F 31% 29.93 in 10.0 mi South 11.5 mph 23.0 mph N/A   Clear
5:15 PM 75.2 °F 44.6 °F 34% 29.92 in 10.0 mi SSE 16.1 mph 23.0 mph N/A   Clear
5:35 PM 75.2 °F 44.6 °F 34% 29.93 in 10.0 mi South 13.8 mph 21.9 mph N/A   Clear
5:55 PM 75.2 °F 46.4 °F 36% 29.92 in 10.0 mi SSE 12.7 mph 18.4 mph N/A   Clear
6:15 PM 75.2 °F 48.2 °F 38% 29.92 in 10.0 mi SSE 13.8 mph 18.4 mph N/A   Clear
6:35 PM 71.6 °F 48.2 °F 43% 29.92 in 10.0 mi SSE 10.4 mph 20.7 mph N/A   Clear
6:55 PM 71.6 °F 50.0 °F 46% 29.92 in 10.0 mi SSE 10.4 mph - N/A   Clear
7:15 PM 71.6 °F 50.0 °F 46% 29.92 in 10.0 mi SSE 10.4 mph - N/A   Clear
7:35 PM 69.8 °F 50.0 °F 49% 29.92 in 10.0 mi SSE 10.4 mph - N/A   Clear
7:55 PM 69.8 °F 51.8 °F 53% 29.92 in 10.0 mi SSE 8.1 mph - N/A   Clear
8:15 PM 68.0 °F 51.8 °F 56% 29.93 in 10.0 mi SSE 8.1 mph - N/A   Clear
8:35 PM 68.0 °F 51.8 °F 56% 29.93 in 10.0 mi SSE 9.2 mph - N/A   Clear
8:55 PM 68.0 °F 51.8 °F 56% 29.94 in 10.0 mi SSE 9.2 mph - N/A   Clear
9:15 PM 66.2 °F 51.8 °F 60% 29.95 in 10.0 mi SSE 9.2 mph - N/A   Mostly Cloudy
9:35 PM 68.0 °F 51.8 °F 56% 29.96 in 10.0 mi SSE 10.4 mph 16.1 mph N/A   Overcast
9:55 PM 64.4 °F 51.8 °F 64% 29.97 in 10.0 mi SSE 6.9 mph - N/A   Overcast
10:15 PM 64.4 °F 51.8 °F 64% 29.98 in 10.0 mi SSE 9.2 mph - N/A   Overcast
10:35 PM 64.4 °F 51.8 °F 64% 29.99 in 10.0 mi SSE 9.2 mph - N/A   Overcast
10:55 PM 64.4 °F 51.8 °F 64% 29.99 in 10.0 mi SSE 9.2 mph - N/A   Overcast
11:15 PM 64.4 °F 53.6 °F 68% 29.99 in 10.0 mi SSE 8.1 mph - N/A   Overcast
11:35 PM 64.4 °F 53.6 °F 68% 29.99 in 10.0 mi SSE 9.2 mph - N/A   Overcast
11:55 PM 64.4 °F 53.6 °F 68% 29.99 in 10.0 mi SSE 8.1 mph - N/A   Overcast